Regional Weather Roundup
Issued by NWS

Home | Current Version | Previous Version | Text Only | Print | Product List | Glossary Off
Versions: 1 2 3 4 5 6 7 8 9 10 11 12 13 14 15 16 17 18 19 20 21 22 23 24 25 26 27 28 29 30 31 32 33 34 35 36 37 38 39 40 41 42 43 44 45 46 47 48 49 50

000
ASUS43 KTOP 230459
RWRKS

WEATHER ROUNDUP FOR KANSAS
NATIONAL WEATHER SERVICE GOODLAND KS
1200 AM CDT MON OCT 23 2017

NOTE:  "FAIR" INDICATES FEW OR NO CLOUDS BELOW 12,000 FEET WITH NO
SIGNIFICANT WEATHER AND/OR OBSTRUCTIONS TO VISIBILITY.

KSZ001>006-013>018-027>032-041>047-230600-
NORTHWEST KANSAS

CITY           SKY/WX    TMP DP  RH WIND       PRES   REMARKS
GOODLAND       CLOUDY    49  26  41 SW10      30.05S
HAYS           CLEAR     48  29  47 SW3       30.02F
HILL CITY      CLEAR     52  29  41 W6        30.01F
RUSSELL        CLEAR     50  30  46 S10       30.01F
$$

KSZ061>065-074>080-084>089-230600-
SOUTHWEST KANSAS

CITY           SKY/WX    TMP DP  RH WIND       PRES   REMARKS
DODGE CITY     CLEAR     49  28  44 SW9       30.06F
ELKHART          N/A     51  32  48 W8          N/A
GARDEN CITY    CLEAR     48  30  49 SW9       30.05F
GREAT BEND     CLEAR     44  32  62 S8        30.04F
LIBERAL        CLOUDY    47  33  58 SW7       30.08F
$$

KSZ066>073-081>083-090>101-230600-
SOUTHEAST KANSAS

CITY           SKY/WX    TMP DP  RH WIND       PRES   REMARKS
CHANUTE        CLEAR     46  40  79 SW7       30.08F
COFFEYVILLE    CLEAR     46  44  93 CALM      30.08F
HUTCHINSON     CLEAR     51  42  71 S9        30.05F
MEDICINE LODGE   N/A     51  38  60 S7        30.07F
NEWTON         CLEAR     51  40  65 S12       30.07F
PARSONS        CLEAR     43  41  93 CALM      30.09F
WICHITA INTL   PTCLDY    47  42  83 S7        30.07F
WICHITA JABRA  CLEAR     52  42  69 S9        30.07F
WICHITA MCCONL CLEAR     48  40  73 SW8       30.07F
WINFIELD       CLEAR     49  43  80 S3        30.11S
$$

KSZ007>012-019>026-033>040-048>060-102>105-230600-
NORTHEAST KANSAS

CITY           SKY/WX    TMP DP  RH WIND       PRES   REMARKS
CONCORDIA      CLEAR     55  30  38 S14       29.99F
EMPORIA        CLEAR     46  37  71 S9        30.06F
LAWRENCE       CLEAR     43  41  93 CALM      30.05F
MANHATTAN      CLEAR     40  37  89 CALM      30.03F
OLATHE IND     CLEAR     46  40  79 S7        30.06F
OLATHE EXE     CLEAR     46  41  82 S3        30.05F
SALINA         CLEAR     51  38  60 S9        30.03F
TOPEKA BILLARD CLEAR     45  44  97 CALM      30.04F
TOPEKA FORBES  CLEAR     48  39  71 S7        30.04F
$$




USA.gov is the U.S. government's official web portal to all federal, state and local government web resources and services.